Year,Month,Day,Hour,Minute,Value (Times are PST for temperature in C)
2013,07,02,00,00,16.50
2013,07,02,00,01,16.50
2013,07,02,00,02,16.50
2013,07,02,00,03,16.40
2013,07,02,00,04,16.40
2013,07,02,00,05,16.40
2013,07,02,00,06,16.40
2013,07,02,00,07,16.40
2013,07,02,00,08,16.40
2013,07,02,00,09,16.40
2013,07,02,00,10,16.40
2013,07,02,00,11,16.40
2013,07,02,00,12,16.40
2013,07,02,00,13,16.40
2013,07,02,00,14,16.30
2013,07,02,00,15,16.40
2013,07,02,00,16,16.30
2013,07,02,00,17,16.30
2013,07,02,00,18,16.30
2013,07,02,00,19,16.30
2013,07,02,00,20,16.30
2013,07,02,00,21,16.30
2013,07,02,00,22,16.30
2013,07,02,00,23,16.30
2013,07,02,00,24,16.30
2013,07,02,00,25,16.30
2013,07,02,00,26,16.30
2013,07,02,00,27,16.30
2013,07,02,00,28,16.30
2013,07,02,00,29,16.30
2013,07,02,00,30,16.20
2013,07,02,00,31,16.20
2013,07,02,00,32,16.20
2013,07,02,00,33,16.20
2013,07,02,00,34,16.20
2013,07,02,00,35,16.20
2013,07,02,00,36,16.20
2013,07,02,00,37,16.20
2013,07,02,00,38,16.10
2013,07,02,00,39,16.10
2013,07,02,00,40,16.10
2013,07,02,00,41,16.10
2013,07,02,00,42,16.10
2013,07,02,00,43,16.10
2013,07,02,00,44,16.10
2013,07,02,00,45,16.00
2013,07,02,00,46,16.10
2013,07,02,00,47,16.00
2013,07,02,00,48,16.00
2013,07,02,00,49,16.00
2013,07,02,00,50,16.00
2013,07,02,00,51,16.00
2013,07,02,00,52,16.00
2013,07,02,00,53,16.00
2013,07,02,00,54,16.00
2013,07,02,00,55,16.00
2013,07,02,00,56,16.00
2013,07,02,00,57,16.00
2013,07,02,00,58,16.00
2013,07,02,00,59,16.00
2013,07,02,01,00,16.00
2013,07,02,01,01,16.00
2013,07,02,01,02,16.00
2013,07,02,01,03,16.00
2013,07,02,01,04,15.90
2013,07,02,01,05,15.90
2013,07,02,01,06,15.90
2013,07,02,01,07,15.90
2013,07,02,01,08,15.90
2013,07,02,01,09,15.90
2013,07,02,01,10,15.90
2013,07,02,01,11,15.90
2013,07,02,01,12,15.80
2013,07,02,01,13,15.80
2013,07,02,01,14,15.80
2013,07,02,01,15,15.80
2013,07,02,01,16,15.80
2013,07,02,01,17,15.80
2013,07,02,01,18,15.80
2013,07,02,01,19,15.80
2013,07,02,01,20,15.80
2013,07,02,01,21,15.80
2013,07,02,01,22,15.80
2013,07,02,01,23,15.80
2013,07,02,01,24,15.70
2013,07,02,01,25,15.70
2013,07,02,01,26,15.70
2013,07,02,01,27,15.70
2013,07,02,01,28,15.70
2013,07,02,01,29,15.70
2013,07,02,01,30,15.70
2013,07,02,01,31,15.70
2013,07,02,01,32,15.60
2013,07,02,01,33,15.60
2013,07,02,01,34,15.60
2013,07,02,01,35,15.60
2013,07,02,01,36,15.60
2013,07,02,01,37,15.60
2013,07,02,01,38,15.50
2013,07,02,01,39,15.50
2013,07,02,01,40,15.50
2013,07,02,01,41,15.50
2013,07,02,01,42,15.40
2013,07,02,01,43,15.40
2013,07,02,01,44,15.40
2013,07,02,01,45,15.40
2013,07,02,01,46,15.40
2013,07,02,01,47,15.40
2013,07,02,01,48,15.40
2013,07,02,01,49,15.30
2013,07,02,01,50,15.30
2013,07,02,01,51,15.30
2013,07,02,01,52,15.30
2013,07,02,01,53,15.30
2013,07,02,01,54,15.30
2013,07,02,01,55,15.20
2013,07,02,01,56,15.20
2013,07,02,01,57,15.20
2013,07,02,01,58,15.20
2013,07,02,01,59,15.20
2013,07,02,02,00,15.20
2013,07,02,02,01,15.20
2013,07,02,02,02,15.20
2013,07,02,02,03,15.20
2013,07,02,02,04,15.20
2013,07,02,02,05,15.20
2013,07,02,02,06,15.20
2013,07,02,02,07,15.20
2013,07,02,02,08,15.10
2013,07,02,02,09,15.10
2013,07,02,02,10,15.10
2013,07,02,02,11,15.10
2013,07,02,02,12,15.10
2013,07,02,02,13,15.10
2013,07,02,02,14,15.10
2013,07,02,02,15,15.10
2013,07,02,02,16,15.00
2013,07,02,02,17,15.00
2013,07,02,02,18,15.00
2013,07,02,02,19,15.00
2013,07,02,02,20,15.00
2013,07,02,02,21,15.00
2013,07,02,02,22,15.00
2013,07,02,02,23,15.00
2013,07,02,02,24,15.00
2013,07,02,02,25,15.00
2013,07,02,02,26,15.00
2013,07,02,02,27,15.00
2013,07,02,02,28,15.00
2013,07,02,02,29,15.00
2013,07,02,02,30,15.00
2013,07,02,02,31,15.00
2013,07,02,02,32,15.00
2013,07,02,02,33,15.00
2013,07,02,02,34,15.00
2013,07,02,02,35,14.90
2013,07,02,02,36,15.00
2013,07,02,02,37,14.90
2013,07,02,02,38,14.90
2013,07,02,02,39,14.90
2013,07,02,02,40,14.90
2013,07,02,02,41,14.90
2013,07,02,02,42,14.90
2013,07,02,02,43,14.90
2013,07,02,02,44,14.90
2013,07,02,02,45,14.90
2013,07,02,02,46,14.90
2013,07,02,02,47,14.90
2013,07,02,02,48,14.90
2013,07,02,02,49,14.90
2013,07,02,02,50,14.90
2013,07,02,02,51,14.90
2013,07,02,02,52,14.90
2013,07,02,02,53,14.90
2013,07,02,02,54,14.90
2013,07,02,02,55,14.90
2013,07,02,02,56,14.90
2013,07,02,02,57,14.90
2013,07,02,02,58,14.90
2013,07,02,02,59,14.90
2013,07,02,03,00,14.90
2013,07,02,03,01,14.90
2013,07,02,03,02,14.90
2013,07,02,03,03,14.90
2013,07,02,03,04,14.90
2013,07,02,03,05,14.90
2013,07,02,03,06,14.90
2013,07,02,03,07,14.90
2013,07,02,03,08,14.90
2013,07,02,03,09,14.90
2013,07,02,03,10,14.90
2013,07,02,03,11,14.90
2013,07,02,03,12,14.90
2013,07,02,03,13,14.90
2013,07,02,03,14,14.90
2013,07,02,03,15,14.90
2013,07,02,03,16,14.90
2013,07,02,03,17,14.80
2013,07,02,03,18,14.80
2013,07,02,03,19,14.80
2013,07,02,03,20,14.80
2013,07,02,03,21,14.80
2013,07,02,03,22,14.80
2013,07,02,03,23,14.80
2013,07,02,03,24,14.80
2013,07,02,03,25,14.80
2013,07,02,03,26,14.80
2013,07,02,03,27,14.80
2013,07,02,03,28,14.70
2013,07,02,03,29,14.70
2013,07,02,03,30,14.70
2013,07,02,03,31,14.70
2013,07,02,03,32,14.70
2013,07,02,03,33,14.70
2013,07,02,03,34,14.70
2013,07,02,03,35,14.70
2013,07,02,03,36,14.70
2013,07,02,03,37,14.70
2013,07,02,03,38,14.70
2013,07,02,03,39,14.70
2013,07,02,03,40,14.60
2013,07,02,03,41,14.60
2013,07,02,03,42,14.60
2013,07,02,03,43,14.60
2013,07,02,03,44,14.60
2013,07,02,03,45,14.60
2013,07,02,03,46,14.50
2013,07,02,03,47,14.50
2013,07,02,03,48,14.50
2013,07,02,03,49,14.50
2013,07,02,03,50,14.50
2013,07,02,03,51,14.40
2013,07,02,03,52,14.40
2013,07,02,03,53,14.40
2013,07,02,03,54,14.40
2013,07,02,03,55,14.40
2013,07,02,03,56,14.40
2013,07,02,03,57,14.40
2013,07,02,03,58,14.30
2013,07,02,03,59,14.30
2013,07,02,04,00,14.30
2013,07,02,04,01,14.30
2013,07,02,04,02,14.30
2013,07,02,04,03,14.30
2013,07,02,04,04,14.30
2013,07,02,04,05,14.30
2013,07,02,04,06,14.30
2013,07,02,04,07,14.30
2013,07,02,04,08,14.30
2013,07,02,04,09,14.30
2013,07,02,04,10,14.20
2013,07,02,04,11,14.20
2013,07,02,04,12,14.20
2013,07,02,04,13,14.20
2013,07,02,04,14,14.20
2013,07,02,04,15,14.20
2013,07,02,04,16,14.20
2013,07,02,04,17,14.20
2013,07,02,04,18,14.20
2013,07,02,04,19,14.20
2013,07,02,04,20,14.20
2013,07,02,04,21,14.20
2013,07,02,04,22,14.20
2013,07,02,04,23,14.20
2013,07,02,04,24,14.20
2013,07,02,04,25,14.20
2013,07,02,04,26,14.20
2013,07,02,04,27,14.20
2013,07,02,04,28,14.10
2013,07,02,04,29,14.10
2013,07,02,04,30,14.10
2013,07,02,04,31,14.10
2013,07,02,04,32,14.10
2013,07,02,04,33,14.10
2013,07,02,04,34,14.10
2013,07,02,04,35,14.10
2013,07,02,04,36,14.10
2013,07,02,04,37,14.10
2013,07,02,04,38,14.10
2013,07,02,04,39,14.10
2013,07,02,04,40,14.10
2013,07,02,04,41,14.10
2013,07,02,04,42,14.00
2013,07,02,04,43,14.10
2013,07,02,04,44,14.00
2013,07,02,04,45,14.00
2013,07,02,04,46,14.00
2013,07,02,04,47,14.00
2013,07,02,04,48,14.00
2013,07,02,04,49,14.00
2013,07,02,04,50,13.90
2013,07,02,04,51,13.90
2013,07,02,04,52,13.90
2013,07,02,04,53,13.90
2013,07,02,04,54,13.90
2013,07,02,04,55,13.90
2013,07,02,04,56,13.90
2013,07,02,04,57,13.90
2013,07,02,04,58,13.90
2013,07,02,04,59,13.90
2013,07,02,05,00,13.90
2013,07,02,05,01,13.90
2013,07,02,05,02,13.90
2013,07,02,05,03,13.90
2013,07,02,05,04,13.90
2013,07,02,05,05,13.90
2013,07,02,05,06,13.90
2013,07,02,05,07,13.90
2013,07,02,05,08,13.90
2013,07,02,05,09,13.90
2013,07,02,05,10,13.90
2013,07,02,05,11,13.90
2013,07,02,05,12,13.90
2013,07,02,05,13,13.90
2013,07,02,05,14,13.90
2013,07,02,05,15,13.90
2013,07,02,05,16,13.90
2013,07,02,05,17,13.90
2013,07,02,05,18,13.90
2013,07,02,05,19,13.90
2013,07,02,05,20,13.90
2013,07,02,05,21,13.90
2013,07,02,05,22,13.90
2013,07,02,05,23,13.90
2013,07,02,05,24,13.90
2013,07,02,05,25,13.90
2013,07,02,05,26,13.90
2013,07,02,05,27,13.90
2013,07,02,05,28,13.90
2013,07,02,05,29,13.90
2013,07,02,05,30,13.90
2013,07,02,05,31,13.90
2013,07,02,05,32,13.90
2013,07,02,05,33,13.90
2013,07,02,05,34,13.90
2013,07,02,05,35,13.90
2013,07,02,05,36,13.90
2013,07,02,05,37,13.90
2013,07,02,05,38,13.90
2013,07,02,05,39,13.90
2013,07,02,05,40,13.90
2013,07,02,05,41,13.90
2013,07,02,05,42,13.90
2013,07,02,05,43,13.90
2013,07,02,05,44,13.90
2013,07,02,05,45,13.90
2013,07,02,05,46,13.90
2013,07,02,05,47,13.90
2013,07,02,05,48,13.90
2013,07,02,05,49,13.90
2013,07,02,05,50,13.90
2013,07,02,05,51,14.00
2013,07,02,05,52,14.00
2013,07,02,05,53,14.00
2013,07,02,05,54,14.00
2013,07,02,05,55,14.00
2013,07,02,05,56,14.00
2013,07,02,05,57,14.00
2013,07,02,05,58,14.00
2013,07,02,05,59,14.10
2013,07,02,06,00,14.10
2013,07,02,06,01,14.10
2013,07,02,06,02,14.10
2013,07,02,06,03,14.10
2013,07,02,06,04,14.10
2013,07,02,06,05,14.10
2013,07,02,06,06,14.10
2013,07,02,06,07,14.10
2013,07,02,06,08,14.10
2013,07,02,06,09,14.10
2013,07,02,06,10,14.10
2013,07,02,06,11,14.10
2013,07,02,06,12,14.10
2013,07,02,06,13,14.10
2013,07,02,06,14,14.10
2013,07,02,06,15,14.10
2013,07,02,06,16,14.10
2013,07,02,06,17,14.10
2013,07,02,06,18,14.10
2013,07,02,06,19,14.10
2013,07,02,06,20,14.10
2013,07,02,06,21,14.10
2013,07,02,06,22,14.10
2013,07,02,06,23,14.10
2013,07,02,06,24,14.20
2013,07,02,06,25,14.20
2013,07,02,06,26,14.20
2013,07,02,06,27,14.20
2013,07,02,06,28,14.20
2013,07,02,06,29,14.20
2013,07,02,06,30,14.20
2013,07,02,06,31,14.20
2013,07,02,06,32,14.20
2013,07,02,06,33,14.20
2013,07,02,06,34,14.20
2013,07,02,06,35,14.30
2013,07,02,06,36,14.30
2013,07,02,06,37,14.30
2013,07,02,06,38,14.30
2013,07,02,06,39,14.30
2013,07,02,06,40,14.30
2013,07,02,06,41,14.30
2013,07,02,06,42,14.40
2013,07,02,06,43,14.40
2013,07,02,06,44,14.40
2013,07,02,06,45,14.40
2013,07,02,06,46,14.50
2013,07,02,06,47,14.50
2013,07,02,06,48,14.50
2013,07,02,06,49,14.50
2013,07,02,06,50,14.60
2013,07,02,06,51,14.60
2013,07,02,06,52,14.60
2013,07,02,06,53,14.60
2013,07,02,06,54,14.70
2013,07,02,06,55,14.70
2013,07,02,06,56,14.70
2013,07,02,06,57,14.70
2013,07,02,06,58,14.80
2013,07,02,06,59,14.80
2013,07,02,07,00,14.80
2013,07,02,07,01,14.80
2013,07,02,07,02,14.80
2013,07,02,07,03,14.80
2013,07,02,07,04,14.90
2013,07,02,07,05,14.90
2013,07,02,07,06,14.90
2013,07,02,07,07,15.00
2013,07,02,07,08,15.00
2013,07,02,07,09,15.00
2013,07,02,07,10,15.10
2013,07,02,07,11,15.10
2013,07,02,07,12,15.20
2013,07,02,07,13,15.20
2013,07,02,07,14,15.30
2013,07,02,07,15,15.30
2013,07,02,07,16,15.30
2013,07,02,07,17,15.40
2013,07,02,07,18,15.40
2013,07,02,07,19,15.50
2013,07,02,07,20,15.50
2013,07,02,07,21,15.60
2013,07,02,07,22,15.60
2013,07,02,07,23,15.60
2013,07,02,07,24,15.70
2013,07,02,07,25,15.70
2013,07,02,07,26,15.80
2013,07,02,07,27,15.80
2013,07,02,07,28,15.90
2013,07,02,07,29,16.00
2013,07,02,07,30,16.00
2013,07,02,07,31,16.10
2013,07,02,07,32,16.10
2013,07,02,07,33,16.10
2013,07,02,07,34,16.20
2013,07,02,07,35,16.20
2013,07,02,07,36,16.20
2013,07,02,07,37,16.30
2013,07,02,07,38,16.30
2013,07,02,07,39,16.30
2013,07,02,07,40,16.30
2013,07,02,07,41,16.40
2013,07,02,07,42,16.40
2013,07,02,07,43,16.40
2013,07,02,07,44,16.50
2013,07,02,07,45,16.50
2013,07,02,07,46,16.60
2013,07,02,07,47,16.60
2013,07,02,07,48,16.70
2013,07,02,07,49,16.70
2013,07,02,07,50,16.80
2013,07,02,07,51,16.80
2013,07,02,07,52,16.90
2013,07,02,07,53,16.90
2013,07,02,07,54,16.90
2013,07,02,07,55,17.00
2013,07,02,07,56,17.10
2013,07,02,07,57,17.10
2013,07,02,07,58,17.20
2013,07,02,07,59,17.20
2013,07,02,08,00,17.20
2013,07,02,08,01,17.20
2013,07,02,08,02,17.30
2013,07,02,08,03,17.30
2013,07,02,08,04,17.30
2013,07,02,08,05,17.30
2013,07,02,08,06,17.30
2013,07,02,08,07,17.30
2013,07,02,08,08,17.30
2013,07,02,08,09,17.30
2013,07,02,08,10,17.30
2013,07,02,08,11,17.20
2013,07,02,08,12,17.20
2013,07,02,08,13,17.20
2013,07,02,08,14,17.20
2013,07,02,08,15,17.30
2013,07,02,08,16,17.30
2013,07,02,08,17,17.30
2013,07,02,08,18,17.40
2013,07,02,08,19,17.40
2013,07,02,08,20,17.40
2013,07,02,08,21,17.50
2013,07,02,08,22,17.50
2013,07,02,08,23,17.60
2013,07,02,08,24,17.60
2013,07,02,08,25,17.60
2013,07,02,08,26,17.70
2013,07,02,08,27,17.70
2013,07,02,08,28,17.70
2013,07,02,08,29,17.80
2013,07,02,08,30,17.80
2013,07,02,08,31,17.90
2013,07,02,08,32,18.00
2013,07,02,08,33,18.10
2013,07,02,08,34,18.20
2013,07,02,08,35,18.30
2013,07,02,08,36,18.40
2013,07,02,08,37,18.40
2013,07,02,08,38,18.50
2013,07,02,08,39,18.60
2013,07,02,08,40,18.60
2013,07,02,08,41,18.70
2013,07,02,08,42,18.70
2013,07,02,08,43,18.70
2013,07,02,08,44,18.70
2013,07,02,08,45,18.80
2013,07,02,08,46,18.80
2013,07,02,08,47,18.80
2013,07,02,08,48,18.90
2013,07,02,08,49,18.90
2013,07,02,08,50,19.00
2013,07,02,08,51,19.00
2013,07,02,08,52,19.10
2013,07,02,08,53,19.10
2013,07,02,08,54,19.20
2013,07,02,08,55,19.30
2013,07,02,08,56,19.30
2013,07,02,08,57,19.30
2013,07,02,08,58,19.40
2013,07,02,08,59,19.40
2013,07,02,09,00,19.50
2013,07,02,09,01,19.50
2013,07,02,09,02,19.50
2013,07,02,09,03,19.60
2013,07,02,09,04,19.60
2013,07,02,09,05,19.70
2013,07,02,09,06,19.70
2013,07,02,09,07,19.80
2013,07,02,09,08,19.80
2013,07,02,09,09,19.80
2013,07,02,09,10,19.80
2013,07,02,09,11,19.80
2013,07,02,09,12,19.80
2013,07,02,09,13,19.80
2013,07,02,09,14,19.70
2013,07,02,09,15,19.70
2013,07,02,09,16,19.70
2013,07,02,09,17,19.70
2013,07,02,09,18,19.80
2013,07,02,09,19,19.80
2013,07,02,09,20,19.80
2013,07,02,09,21,19.80
2013,07,02,09,22,19.90
2013,07,02,09,23,19.90
2013,07,02,09,24,19.90
2013,07,02,09,25,20.00
2013,07,02,09,26,20.10
2013,07,02,09,27,20.20
2013,07,02,09,28,20.20
2013,07,02,09,29,20.30
2013,07,02,09,30,20.30
2013,07,02,09,31,20.40
2013,07,02,09,32,20.40
2013,07,02,09,33,20.40
2013,07,02,09,34,20.40
2013,07,02,09,35,20.50
2013,07,02,09,36,20.50
2013,07,02,09,37,20.50
2013,07,02,09,38,20.50
2013,07,02,09,39,20.40
2013,07,02,09,40,20.40
2013,07,02,09,41,20.30
2013,07,02,09,42,20.30
2013,07,02,09,43,20.30
2013,07,02,09,44,20.30
2013,07,02,09,45,20.30
2013,07,02,09,46,20.30
2013,07,02,09,47,20.30
2013,07,02,09,48,20.20
2013,07,02,09,49,20.20
2013,07,02,09,50,20.30
2013,07,02,09,51,20.30
2013,07,02,09,52,20.30
2013,07,02,09,53,20.30
2013,07,02,09,54,20.40
2013,07,02,09,55,20.40
2013,07,02,09,56,20.40
2013,07,02,09,57,20.40
2013,07,02,09,58,20.50
2013,07,02,09,59,20.60
2013,07,02,10,00,20.60
2013,07,02,10,01,20.70
2013,07,02,10,02,20.70
2013,07,02,10,03,20.70
2013,07,02,10,04,20.70
2013,07,02,10,05,20.60
2013,07,02,10,06,20.60
2013,07,02,10,07,20.60
2013,07,02,10,08,20.60
2013,07,02,10,09,20.60
2013,07,02,10,10,20.60
2013,07,02,10,11,20.60
2013,07,02,10,12,20.60
2013,07,02,10,13,20.70
2013,07,02,10,14,20.70
2013,07,02,10,15,20.70
2013,07,02,10,16,20.70
2013,07,02,10,17,20.80
2013,07,02,10,18,20.80
2013,07,02,10,19,20.80
2013,07,02,10,20,20.80
2013,07,02,10,21,20.80
2013,07,02,10,22,20.90
2013,07,02,10,23,21.00
2013,07,02,10,24,21.10
2013,07,02,10,25,21.10
2013,07,02,10,26,21.20
2013,07,02,10,27,21.20
2013,07,02,10,28,21.30
2013,07,02,10,29,21.30
2013,07,02,10,30,21.30
2013,07,02,10,31,21.40
2013,07,02,10,32,21.40
2013,07,02,10,33,21.40
2013,07,02,10,34,21.40
2013,07,02,10,35,21.40
2013,07,02,10,36,21.40
2013,07,02,10,37,21.50
2013,07,02,10,38,21.50
2013,07,02,10,39,21.60
2013,07,02,10,40,21.60
2013,07,02,10,41,21.70
2013,07,02,10,42,21.80
2013,07,02,10,43,21.80
2013,07,02,10,44,21.90
2013,07,02,10,45,22.00
2013,07,02,10,46,22.10
2013,07,02,10,47,22.10
2013,07,02,10,48,22.20
2013,07,02,10,49,22.20
2013,07,02,10,50,22.20
2013,07,02,10,51,22.20
2013,07,02,10,52,22.20
2013,07,02,10,53,22.30
2013,07,02,10,54,22.30
2013,07,02,10,55,22.40
2013,07,02,10,56,22.40
2013,07,02,10,57,22.40
2013,07,02,10,58,22.40
2013,07,02,10,59,22.50
2013,07,02,11,00,22.50
2013,07,02,11,01,22.60
2013,07,02,11,02,22.70
2013,07,02,11,03,22.80
2013,07,02,11,04,22.80
2013,07,02,11,05,22.90
2013,07,02,11,06,22.90
2013,07,02,11,07,22.90
2013,07,02,11,08,22.90
2013,07,02,11,09,22.90
2013,07,02,11,10,23.00
2013,07,02,11,11,23.00
2013,07,02,11,12,23.10
2013,07,02,11,13,23.20
2013,07,02,11,14,23.20
2013,07,02,11,15,23.20
2013,07,02,11,16,23.30
2013,07,02,11,17,23.30
2013,07,02,11,18,23.40
2013,07,02,11,19,23.50
2013,07,02,11,20,23.60
2013,07,02,11,21,23.60
2013,07,02,11,22,23.70
2013,07,02,11,23,23.80
2013,07,02,11,24,23.90
2013,07,02,11,25,23.90
2013,07,02,11,26,23.90
2013,07,02,11,27,23.90
2013,07,02,11,28,23.90
2013,07,02,11,29,23.90
2013,07,02,11,30,23.90
2013,07,02,11,31,23.80
2013,07,02,11,32,23.80
2013,07,02,11,33,23.70
2013,07,02,11,34,23.70
2013,07,02,11,35,23.70
2013,07,02,11,36,23.70
2013,07,02,11,37,23.70
2013,07,02,11,38,23.70
2013,07,02,11,39,23.70
2013,07,02,11,40,23.70
2013,07,02,11,41,23.70
2013,07,02,11,42,23.70
2013,07,02,11,43,23.70
2013,07,02,11,44,23.70
2013,07,02,11,45,23.70
2013,07,02,11,46,23.60
2013,07,02,11,47,23.60
2013,07,02,11,48,23.50
2013,07,02,11,49,23.50
2013,07,02,11,50,23.40
2013,07,02,11,51,23.40
2013,07,02,11,52,23.40
2013,07,02,11,53,23.40
2013,07,02,11,54,23.50
2013,07,02,11,55,23.50
2013,07,02,11,56,23.50
2013,07,02,11,57,23.50
2013,07,02,11,58,23.50
2013,07,02,11,59,23.50
2013,07,02,12,00,23.50
2013,07,02,12,01,23.50
2013,07,02,12,02,23.40
2013,07,02,12,03,23.40
2013,07,02,12,04,23.50
2013,07,02,12,05,23.50
2013,07,02,12,06,23.60
2013,07,02,12,07,23.70
2013,07,02,12,08,23.70
2013,07,02,12,09,23.80
2013,07,02,12,10,23.80
2013,07,02,12,11,23.80
2013,07,02,12,12,23.90
2013,07,02,12,13,23.90
2013,07,02,12,14,23.90
2013,07,02,12,15,23.90
2013,07,02,12,16,24.00
2013,07,02,12,17,24.10
2013,07,02,12,18,24.10
2013,07,02,12,19,24.10
2013,07,02,12,20,24.10
2013,07,02,12,21,24.10
2013,07,02,12,22,24.10
2013,07,02,12,23,24.00
2013,07,02,12,24,24.00
2013,07,02,12,25,24.00
2013,07,02,12,26,24.00
2013,07,02,12,27,24.00
2013,07,02,12,28,24.10
2013,07,02,12,29,24.10
2013,07,02,12,30,24.00
2013,07,02,12,31,23.90
2013,07,02,12,32,23.90
2013,07,02,12,33,23.80
2013,07,02,12,34,23.80
2013,07,02,12,35,23.80
2013,07,02,12,36,23.80
2013,07,02,12,37,23.80
2013,07,02,12,38,23.90
2013,07,02,12,39,23.90
2013,07,02,12,40,24.00
2013,07,02,12,41,23.90
2013,07,02,12,42,23.90
2013,07,02,12,43,23.80
2013,07,02,12,44,23.80
2013,07,02,12,45,23.80
2013,07,02,12,46,23.80
2013,07,02,12,47,23.80
2013,07,02,12,48,23.80
2013,07,02,12,49,23.90
2013,07,02,12,50,23.90
2013,07,02,12,51,23.90
2013,07,02,12,52,23.90
2013,07,02,12,53,23.90
2013,07,02,12,54,23.90
2013,07,02,12,55,23.90
2013,07,02,12,56,23.90
2013,07,02,12,57,23.90
2013,07,02,12,58,23.90
2013,07,02,12,59,23.90
2013,07,02,13,00,23.90
2013,07,02,13,01,23.80
2013,07,02,13,02,23.80
2013,07,02,13,03,23.90
2013,07,02,13,04,23.90
2013,07,02,13,05,23.80
2013,07,02,13,06,23.80
2013,07,02,13,07,23.80
2013,07,02,13,08,23.80
2013,07,02,13,09,23.80
2013,07,02,13,10,23.80
2013,07,02,13,11,23.80
2013,07,02,13,12,23.80
2013,07,02,13,13,23.80
2013,07,02,13,14,23.90
2013,07,02,13,15,23.90
2013,07,02,13,16,23.90
2013,07,02,13,17,23.90
2013,07,02,13,18,24.00
2013,07,02,13,19,24.00
2013,07,02,13,20,24.10
2013,07,02,13,21,24.10
2013,07,02,13,22,24.10
2013,07,02,13,23,24.20
2013,07,02,13,24,24.20
2013,07,02,13,25,24.20
2013,07,02,13,26,24.20
2013,07,02,13,27,24.20
2013,07,02,13,28,24.20
2013,07,02,13,29,24.20
2013,07,02,13,30,24.20
2013,07,02,13,31,24.20
2013,07,02,13,32,24.10
2013,07,02,13,33,24.10
2013,07,02,13,34,24.10
2013,07,02,13,35,24.10
2013,07,02,13,36,24.20
2013,07,02,13,37,24.20
2013,07,02,13,38,24.20
2013,07,02,13,39,24.20
2013,07,02,13,40,24.10
2013,07,02,13,41,24.10
2013,07,02,13,42,24.10
2013,07,02,13,43,24.10
2013,07,02,13,44,24.20
2013,07,02,13,45,24.20
2013,07,02,13,46,24.20
2013,07,02,13,47,24.20
2013,07,02,13,48,24.10
2013,07,02,13,49,24.10
2013,07,02,13,50,24.10
2013,07,02,13,51,24.10
2013,07,02,13,52,24.00
2013,07,02,13,53,24.00
2013,07,02,13,54,23.90
2013,07,02,13,55,24.00
2013,07,02,13,56,24.00
2013,07,02,13,57,24.10
2013,07,02,13,58,24.10
2013,07,02,13,59,24.20
2013,07,02,14,00,24.10
2013,07,02,14,01,24.10
2013,07,02,14,02,24.10
2013,07,02,14,03,24.10
2013,07,02,14,04,24.20
2013,07,02,14,05,24.20
2013,07,02,14,06,24.30
2013,07,02,14,07,24.30
2013,07,02,14,08,24.30
2013,07,02,14,09,24.30
2013,07,02,14,10,24.40
2013,07,02,14,11,24.40
2013,07,02,14,12,24.50
2013,07,02,14,13,24.50
2013,07,02,14,14,24.60
2013,07,02,14,15,24.60
2013,07,02,14,16,24.60
2013,07,02,14,17,24.70
2013,07,02,14,18,24.70
2013,07,02,14,19,24.70
2013,07,02,14,20,24.70
2013,07,02,14,21,24.70
2013,07,02,14,22,24.70
2013,07,02,14,23,24.80
2013,07,02,14,24,24.80
2013,07,02,14,25,24.80
2013,07,02,14,26,24.70
2013,07,02,14,27,24.60
2013,07,02,14,28,24.60
2013,07,02,14,29,24.50
2013,07,02,14,30,24.30
2013,07,02,14,31,24.30
2013,07,02,14,32,24.20
2013,07,02,14,33,24.20
2013,07,02,14,34,24.30
2013,07,02,14,35,24.30
2013,07,02,14,36,24.30
2013,07,02,14,37,24.40
2013,07,02,14,38,24.40
2013,07,02,14,39,24.50
2013,07,02,14,40,24.60
2013,07,02,14,41,24.70
2013,07,02,14,42,24.80
2013,07,02,14,43,24.80
2013,07,02,14,44,24.90
2013,07,02,14,45,24.90
2013,07,02,14,46,24.90
2013,07,02,14,47,24.80
2013,07,02,14,48,24.80
2013,07,02,14,49,24.80
2013,07,02,14,50,24.70
2013,07,02,14,51,24.70
2013,07,02,14,52,24.70
2013,07,02,14,53,24.70
2013,07,02,14,54,24.70
2013,07,02,14,55,24.70
2013,07,02,14,56,24.70
2013,07,02,14,57,24.60
2013,07,02,14,58,24.60
2013,07,02,14,59,24.60
2013,07,02,15,00,24.70
2013,07,02,15,01,24.70
2013,07,02,15,02,24.70
2013,07,02,15,03,24.60
2013,07,02,15,04,24.60
2013,07,02,15,05,24.60
2013,07,02,15,06,24.50
2013,07,02,15,07,24.50
2013,07,02,15,08,24.50
2013,07,02,15,09,24.40
2013,07,02,15,10,24.40
2013,07,02,15,11,24.40
2013,07,02,15,12,24.40
2013,07,02,15,13,24.40
2013,07,02,15,14,24.30
2013,07,02,15,15,24.40
2013,07,02,15,16,24.40
2013,07,02,15,17,24.40
2013,07,02,15,18,24.40
2013,07,02,15,19,24.50
2013,07,02,15,20,24.60
2013,07,02,15,21,24.60
2013,07,02,15,22,24.60
2013,07,02,15,23,24.60
2013,07,02,15,24,24.60
2013,07,02,15,25,24.70
2013,07,02,15,26,24.70
2013,07,02,15,27,24.70
2013,07,02,15,28,24.80
2013,07,02,15,29,24.80
2013,07,02,15,30,24.70
2013,07,02,15,31,24.70
2013,07,02,15,32,24.70
2013,07,02,15,33,24.70
2013,07,02,15,34,24.80
2013,07,02,15,35,24.80
2013,07,02,15,36,24.90
2013,07,02,15,37,24.90
2013,07,02,15,38,24.90
2013,07,02,15,39,25.00
2013,07,02,15,40,25.00
2013,07,02,15,41,25.10
2013,07,02,15,42,25.10
2013,07,02,15,43,25.10
2013,07,02,15,44,25.20
2013,07,02,15,45,25.30
2013,07,02,15,46,25.30
2013,07,02,15,47,25.30
2013,07,02,15,48,25.40
2013,07,02,15,49,25.50
2013,07,02,15,50,25.60
2013,07,02,15,51,25.70
2013,07,02,15,52,25.70
2013,07,02,15,53,25.70
2013,07,02,15,54,25.70
2013,07,02,15,55,25.70
2013,07,02,15,56,25.80
2013,07,02,15,57,25.80
2013,07,02,15,58,25.90
2013,07,02,15,59,25.90
2013,07,02,16,00,25.90
2013,07,02,16,01,25.90
2013,07,02,16,02,25.90
2013,07,02,16,03,25.90
2013,07,02,16,04,25.90
2013,07,02,16,05,26.00
2013,07,02,16,06,26.00
2013,07,02,16,07,26.10
2013,07,02,16,08,26.10
2013,07,02,16,09,26.20
2013,07,02,16,10,26.30
2013,07,02,16,11,26.30
2013,07,02,16,12,26.40
2013,07,02,16,13,26.50
2013,07,02,16,14,26.50
2013,07,02,16,15,26.60
2013,07,02,16,16,26.60
2013,07,02,16,17,26.60
2013,07,02,16,18,26.50
2013,07,02,16,19,26.50
2013,07,02,16,20,26.40
2013,07,02,16,21,26.40
2013,07,02,16,22,26.40
2013,07,02,16,23,26.40
2013,07,02,16,24,26.30
2013,07,02,16,25,26.30
2013,07,02,16,26,26.30
2013,07,02,16,27,26.30
2013,07,02,16,28,26.30
2013,07,02,16,29,26.30
2013,07,02,16,30,26.30
2013,07,02,16,31,26.40
2013,07,02,16,32,26.40
2013,07,02,16,33,26.40
2013,07,02,16,34,26.50
2013,07,02,16,35,26.50
2013,07,02,16,36,26.40
2013,07,02,16,37,26.40
2013,07,02,16,38,26.40
2013,07,02,16,39,26.30
2013,07,02,16,40,26.30
2013,07,02,16,41,26.20
2013,07,02,16,42,26.10
2013,07,02,16,43,26.10
2013,07,02,16,44,26.10
2013,07,02,16,45,26.00
2013,07,02,16,46,26.00
2013,07,02,16,47,26.00
2013,07,02,16,48,26.00
2013,07,02,16,49,25.90
2013,07,02,16,50,25.80
2013,07,02,16,51,25.80
2013,07,02,16,52,25.80
2013,07,02,16,53,25.80
2013,07,02,16,54,25.80
2013,07,02,16,55,25.80
2013,07,02,16,56,25.80
2013,07,02,16,57,25.90
2013,07,02,16,58,25.90
2013,07,02,16,59,25.90
2013,07,02,17,00,25.90
2013,07,02,17,01,25.90
2013,07,02,17,02,25.80
2013,07,02,17,03,25.80
2013,07,02,17,04,25.90
2013,07,02,17,05,25.90
2013,07,02,17,06,25.90
2013,07,02,17,07,25.80
2013,07,02,17,08,25.80
2013,07,02,17,09,25.80
2013,07,02,17,10,25.70
2013,07,02,17,11,25.70
2013,07,02,17,12,25.70
2013,07,02,17,13,25.70
2013,07,02,17,14,25.70
2013,07,02,17,15,25.70
2013,07,02,17,16,25.70
2013,07,02,17,17,25.60
2013,07,02,17,18,25.60
2013,07,02,17,19,25.60